Weather History for Montreal Mirabel, QC

Change the Weather History Date:

Thursday, October 6, 2011

  Actual Average Record
Temperature  
Mean Temperature 44 °F -  
Max Temperature 57 °F 57 °F 77 °F (2005)
Min Temperature 32 °F 38 °F 28 °F (1996)
Degree Days  
Heating Degree Days 20    
Moisture  
Dew Point 30 °F    
Average Humidity 60    
Maximum Humidity 87    
Minimum Humidity 29    
Precipitation  
Precipitation 0.00 in - - ()
Sea Level Pressure  
Sea Level Pressure 30.35 in    
Wind  
Wind Speed 2 mph ()    
Max Wind Speed 7 mph    
Max Gust Speed -    
Averages and records for this station are not official NWS values.
T = Trace of Precipitation, MM = Missing Value Source: Averaged Metar Reports

Daily Weather History Graph

Daily Weather History Graph

Search for Another Location

Airport:

Trip Planner

Search our weather history database for the weather conditions in past years. The results will help you decide how hot, cold, wet, or windy it might be!

Date:

Astronomy

Oct. 06, 2011 Rise Set
Actual Time 7:00 AM EDT 6:27 PM EDT
Civil Twilight 6:30 AM EDT 6:57 PM EDT
Nautical Twilight 5:56 AM EDT 7:31 PM EDT
Astronomical Twilight 5:21 AM EDT 8:06 PM EDT
Moon 3:52 PM EDT (10/6) 1:31 AM EDT (10/6)
Length of Visible Light 12h 26m
Length of Day
11h 26m
Waxing Gibbous, 75% of the Moon is Illuminated
Oct 6
Waxing Gibbous
Oct 11
Full
Oct 19
Last Quarter
Oct 26
New
Nov 2
First Quarter

Hourly Weather History & Observations

Time (EDT) Temp. Windchill Dew Point Humidity Pressure Visibility Wind Dir Wind Speed Gust Speed Precip Events Conditions
12:00 AM 37.4 °F 34.9 °F 30.2 °F 75% 30.32 in 25.0 mi West 3.5 mph - N/A   Clear
1:00 AM 35.6 °F 31.7 °F 30.2 °F 81% 30.33 in 25.0 mi West 4.6 mph - N/A   Clear
2:00 AM 35.6 °F 32.8 °F 30.2 °F 81% 30.33 in 25.0 mi WNW 3.5 mph - N/A   Clear
3:00 AM 37.4 °F - 28.4 °F 70% 30.33 in 25.0 mi WNW 2.3 mph - N/A   Clear
4:00 AM 35.6 °F - 28.4 °F 75% 30.35 in 25.0 mi Calm Calm - N/A   Clear
5:00 AM 33.8 °F - 28.4 °F 81% 30.37 in 25.0 mi Calm Calm - N/A   Clear
6:00 AM 33.8 °F - 28.4 °F 81% 30.38 in 25.0 mi Calm Calm - N/A   Clear
7:00 AM 32.0 °F - 28.4 °F 87% 30.39 in 45.0 mi Calm Calm - N/A   Mostly Cloudy
9:00 AM 41.0 °F - 30.2 °F 65% 30.42 in 45.0 mi Calm Calm - N/A   Mostly Cloudy
10:00 AM 46.4 °F 45.2 °F 30.2 °F 53% 30.42 in 45.0 mi North 3.5 mph - N/A   Mostly Cloudy
11:00 AM 48.2 °F - 28.4 °F 46% 30.41 in 45.0 mi Calm Calm - N/A   Mostly Cloudy
12:00 PM 50.0 °F - 33.8 °F 54% 30.39 in 45.0 mi Calm Calm - N/A   Mostly Cloudy
1:00 PM 51.8 °F - 30.2 °F 44% 30.37 in 45.0 mi Calm Calm - N/A   Scattered Clouds
2:00 PM 53.6 °F - 32.0 °F 44% 30.33 in 45.0 mi SSW 4.6 mph - N/A   Partly Cloudy
3:00 PM 55.4 °F - 32.0 °F 41% 30.32 in 45.0 mi West 6.9 mph - N/A   Partly Cloudy
4:00 PM 57.2 °F - 28.4 °F 33% 30.31 in 45.0 mi NW 5.8 mph - N/A   Mostly Cloudy
5:00 PM 57.2 °F - 24.8 °F 29% 30.31 in 45.0 mi WNW 4.6 mph - N/A   Mostly Cloudy
6:00 PM 53.6 °F - 28.4 °F 38% 30.31 in 45.0 mi West 3.5 mph - N/A   Partly Cloudy
7:00 PM 48.2 °F - 30.2 °F 50% 30.33 in 25.0 mi West 3.5 mph - N/A   Partly Cloudy
8:00 PM 44.6 °F - 32.0 °F 61% 30.35 in 25.0 mi West 2.3 mph - N/A   Partly Cloudy
9:00 PM 46.4 °F - 32.0 °F 57% 30.35 in 25.0 mi West 2.3 mph - N/A   Scattered Clouds
10:00 PM 44.6 °F 41.4 °F 33.8 °F 66% 30.35 in 25.0 mi West 5.8 mph - N/A   Mostly Cloudy
11:00 PM 44.6 °F 41.4 °F 33.8 °F 66% 30.37 in 25.0 mi West 5.8 mph - N/A   Scattered Clouds